Location: Newark
(48.8604°N, 2.3376°E)
Time: 16:11:55
(UTC+00:00)

XW-2C - Pass Details

Date: 15 December 2021
Orbit: 503 x 523 km, 97.5° (Epoch: 17 January)

Event Time Altitude Azimuth Distance (km) Brightness Sun altitude
Rises 05:37:21 0° 17° (NNE) 2,670 ? -18.7°
Reaches altitude 10° 05:39:32 10° 23° (NNE) 1,775 ? -18.3°
Maximum altitude 05:43:15 49° 99° (E) 686 ? -17.7°
Drops below altitude 10° 05:46:55 10° 175° (S) 1,752 ? -17.1°
Sets 05:49:03 0° 181° (S) 2,631 ? -16.8°
